• In Hungary
  • List of Countries
  • For 7 days
  • Water Temperature
  • Satellite Maps
  • Weather Map
  • News
  • Weather Widgets
  • user-avatar
    Login

    Hourly Weather Yasnaya Polyana

    Today, 16 July, Monday

    Time Temperature Precipitation Wind Pressure Humidity
    00:00 +21°C° 1.7 mm 2 mps 742 mmHg 89%
    01:00 +21°C° 0.3 mm 2 mps 742 mmHg 90%
    02:00 +20°C° 0.3 mm 2 mps 742 mmHg 90%
    03:00 +20°C° 0 mm 2 mps 742 mmHg 91%
    04:00 +20°C° 0.8 mm 2 mps 742 mmHg 91%
    05:00 +20°C° 0.8 mm 2 mps 742 mmHg 91%
    06:00 +21°C° 0.8 mm 2 mps 742 mmHg 92%
    07:00 +22°C° 0.3 mm 3 mps 742 mmHg 87%
    08:00 +25°C° 0.3 mm 3 mps 742 mmHg 83%
    09:00 +26°C° 0 mm 4 mps 742 mmHg 77%
    10:00 +27°C° 1.4 mm 4 mps 742 mmHg 73%
    11:00 +28°C° 1.4 mm 4 mps 742 mmHg 69%
    12:00 +29°C° 1.4 mm 5 mps 742 mmHg 65%
    13:00 +29°C° 1 mm 5 mps 741 mmHg 65%
    14:00 +30°C° 1 mm 5 mps 741 mmHg 65%
    15:00 +30°C° 1 mm 5 mps 741 mmHg 66%
    16:00 +29°C° 1.2 mm 4 mps 741 mmHg 70%
    17:00 +28°C° 1.2 mm 4 mps 740 mmHg 74%
    18:00 +27°C° 1.2 mm 4 mps 740 mmHg 78%
    19:00 +26°C° 0.6 mm 4 mps 740 mmHg 81%
    20:00 +25°C° 0.6 mm 4 mps 740 mmHg 84%
    21:00 +23°C° 0.6 mm 4 mps 740 mmHg 87%
    22:00 +22°C° 0.4 mm 4 mps 740 mmHg 88%
    23:00 +22°C° 0.4 mm 3 mps 740 mmHg 89%

    Tomorrow, 17 July, Tuesday

    Time Temperature Precipitation Wind Pressure Humidity
    00:00 +22°C° 0.4 mm 3 mps 740 mmHg 91%
    01:00 +21°C° 0.4 mm 4 mps 740 mmHg 92%
    02:00 +21°C° 0.4 mm 4 mps 739 mmHg 93%
    03:00 +21°C° 0.4 mm 4 mps 739 mmHg 94%
    04:00 +21°C° 0.1 mm 4 mps 739 mmHg 94%
    05:00 +21°C° 0.1 mm 4 mps 739 mmHg 93%
    06:00 +21°C° 0.1 mm 4 mps 739 mmHg 93%
    07:00 +21°C° 0.3 mm 4 mps 739 mmHg 91%
    08:00 +22°C° 0.3 mm 4 mps 739 mmHg 89%
    09:00 +22°C° 0.3 mm 5 mps 738 mmHg 87%
    10:00 +23°C° 0.4 mm 5 mps 738 mmHg 85%
    11:00 +23°C° 0.4 mm 5 mps 738 mmHg 83%
    12:00 +25°C° 0.4 mm 5 mps 738 mmHg 81%
    13:00 +25°C° 0.4 mm 5 mps 738 mmHg 81%
    14:00 +25°C° 0.4 mm 5 mps 738 mmHg 82%
    15:00 +25°C° 0.4 mm 4 mps 737 mmHg 82%
    16:00 +23°C° 0.6 mm 4 mps 737 mmHg 84%
    17:00 +23°C° 0.6 mm 4 mps 737 mmHg 86%
    18:00 +23°C° 0.6 mm 5 mps 737 mmHg 88%
    19:00 +22°C° 0.2 mm 4 mps 737 mmHg 90%
    20:00 +21°C° 0.2 mm 4 mps 736 mmHg 92%
    21:00 +20°C° 0.2 mm 4 mps 736 mmHg 94%
    22:00 +20°C° 0.3 mm 4 mps 736 mmHg 94%
    23:00 +20°C° 0.3 mm 4 mps 736 mmHg 95%

    Day after tomorrow, 18 July, Wednesday

    Time Temperature Precipitation Wind Pressure Humidity
    00:00 +20°C° 0.3 mm 4 mps 735 mmHg 95%
    01:00 +20°C° 0.4 mm 4 mps 735 mmHg 95%
    02:00 +19°C° 0.4 mm 4 mps 735 mmHg 96%
    03:00 +19°C° 0.4 mm 4 mps 735 mmHg 96%
    04:00 +19°C° 0.3 mm 3 mps 735 mmHg 96%
    05:00 +19°C° 0.3 mm 3 mps 735 mmHg 96%
    06:00 +19°C° 0.3 mm 3 mps 734 mmHg 96%
    07:00 +20°C° 0.1 mm 3 mps 734 mmHg 95%
    08:00 +20°C° 0.1 mm 2 mps 735 mmHg 93%
    09:00 +20°C° 0.1 mm 2 mps 735 mmHg 91%
    10:00 +21°C° 0.1 mm 2 mps 735 mmHg 88%
    11:00 +21°C° 0.1 mm 2 mps 735 mmHg 85%
    12:00 +23°C° 0.1 mm 2 mps 735 mmHg 82%
    13:00 +24°C° 0.3 mm 2 mps 735 mmHg 80%
    14:00 +24°C° 0.3 mm 2 mps 735 mmHg 77%
    15:00 +25°C° 0.3 mm 2 mps 736 mmHg 75%
    16:00 +25°C° 0.6 mm 2 mps 736 mmHg 76%
    17:00 +24°C° 0.6 mm 3 mps 736 mmHg 78%
    18:00 +24°C° 0.6 mm 3 mps 736 mmHg 79%
    19:00 +22°C° 0.2 mm 3 mps 736 mmHg 84%
    20:00 +21°C° 0.2 mm 3 mps 736 mmHg 89%
    21:00 +20°C° 0.2 mm 3 mps 736 mmHg 94%
    22:00 +19°C° 0.1 mm 3 mps 736 mmHg 94%
    23:00 +19°C° 0.1 mm 3 mps 736 mmHg 95%

    19 July, Thursday

    Time Temperature Precipitation Wind Pressure Humidity
    00:00 +19°C° 0.1 mm 3 mps 737 mmHg 96%
    01:00 +19°C° 0.1 mm 2 mps 737 mmHg 96%
    02:00 +19°C° 0.1 mm 2 mps 737 mmHg 96%
    03:00 +19°C° 0.1 mm 2 mps 737 mmHg 97%
    04:00 +19°C° 0 mm 2 mps 737 mmHg 96%
    05:00 +19°C° 0 mm 2 mps 737 mmHg 96%
    06:00 +20°C° 0 mm 2 mps 738 mmHg 96%
    07:00 +20°C° 0.1 mm 3 mps 738 mmHg 93%
    08:00 +21°C° 0.1 mm 3 mps 738 mmHg 89%
    09:00 +22°C° 0.1 mm 3 mps 739 mmHg 86%
    10:00 +23°C° 0.5 mm 4 mps 739 mmHg 83%
    11:00 +25°C° 0.5 mm 4 mps 739 mmHg 79%
    12:00 +26°C° 0.5 mm 4 mps 739 mmHg 75%
    13:00 +26°C° 1.1 mm 5 mps 739 mmHg 76%
    14:00 +26°C° 1.1 mm 5 mps 739 mmHg 76%
    15:00 +27°C° 1.1 mm 5 mps 740 mmHg 77%
    16:00 +26°C° 1 mm 5 mps 740 mmHg 79%
    17:00 +26°C° 1 mm 5 mps 740 mmHg 81%
    18:00 +26°C° 1 mm 4 mps 740 mmHg 83%
    19:00 +25°C° 0.4 mm 4 mps 741 mmHg 85%
    20:00 +23°C° 0.4 mm 4 mps 741 mmHg 87%
    21:00 +22°C° 0.4 mm 3 mps 741 mmHg 90%
    22:00 +21°C° 0 mm 3 mps 741 mmHg 91%
    23:00 +21°C° 0 mm 3 mps 741 mmHg 91%

    20 July, Friday

    Time Temperature Precipitation Wind Pressure Humidity
    00:00 +20°C° 0 mm 3 mps 741 mmHg 92%
    01:00 +20°C° 0 mm 3 mps 742 mmHg 93%
    02:00 +20°C° 0 mm 2 mps 742 mmHg 93%
    03:00 +19°C° 0 mm 2 mps 742 mmHg 93%
    04:00 +20°C° 0.1 mm 2 mps 742 mmHg 93%
    05:00 +20°C° 0.1 mm 3 mps 742 mmHg 92%
    06:00 +20°C° 0.1 mm 3 mps 742 mmHg 92%
    07:00 +22°C° 0.1 mm 3 mps 743 mmHg 87%
    08:00 +24°C° 0.1 mm 3 mps 743 mmHg 83%
    09:00 +26°C° 0.1 mm 3 mps 743 mmHg 78%
    10:00 +27°C° 1 mm 3 mps 743 mmHg 74%
    11:00 +28°C° 1 mm 3 mps 743 mmHg 69%
    12:00 +28°C° 1 mm 4 mps 743 mmHg 65%
    13:00 +29°C° 0.3 mm 3 mps 743 mmHg 64%
    14:00 +29°C° 0.3 mm 3 mps 743 mmHg 62%
    15:00 +30°C° 0.3 mm 3 mps 743 mmHg 60%
    16:00 +29°C° 0.5 mm 3 mps 743 mmHg 65%
    17:00 +29°C° 0.5 mm 3 mps 743 mmHg 69%
    18:00 +28°C° 0.5 mm 2 mps 743 mmHg 74%
    19:00 +27°C° 0.1 mm 2 mps 743 mmHg 78%
    20:00 +25°C° 0.1 mm 2 mps 743 mmHg 82%
    21:00 +24°C° 0.1 mm 2 mps 743 mmHg 86%
    22:00 +23°C° 0 mm 2 mps 743 mmHg 87%
    23:00 +23°C° 0 mm 2 mps 743 mmHg 88%

    21 July, Saturday

    Time Temperature Precipitation Wind Pressure Humidity
    00:00 +21°C° 0 mm 2 mps 743 mmHg 90%
    01:00 +21°C° 0 mm 2 mps 743 mmHg 90%
    02:00 +20°C° 0 mm 2 mps 743 mmHg 91%
    03:00 +20°C° 0 mm 2 mps 743 mmHg 92%
    04:00 +20°C° 0 mm 2 mps 743 mmHg 91%
    05:00 +21°C° 0 mm 2 mps 743 mmHg 91%
    06:00 +21°C° 0 mm 2 mps 743 mmHg 91%
    07:00 +24°C° 0 mm 2 mps 743 mmHg 84%
    08:00 +25°C° 0 mm 2 mps 743 mmHg 78%
    09:00 +27°C° 0 mm 2 mps 743 mmHg 71%
    10:00 +28°C° 0.4 mm 2 mps 743 mmHg 66%
    11:00 +29°C° 0.4 mm 2 mps 743 mmHg 61%
    12:00 +30°C° 0.4 mm 2 mps 743 mmHg 55%
    13:00 +30°C° 0.3 mm 2 mps 743 mmHg 56%
    14:00 +30°C° 0.3 mm 2 mps 743 mmHg 56%
    15:00 +31°C° 0.3 mm 2 mps 743 mmHg 56%
    16:00 +30°C° 0.5 mm 2 mps 743 mmHg 61%
    17:00 +30°C° 0.5 mm 2 mps 743 mmHg 66%
    18:00 +29°C° 0.5 mm 2 mps 742 mmHg 71%
    19:00 +28°C° 0.5 mm 2 mps 742 mmHg 74%
    20:00 +26°C° 0.5 mm 2 mps 742 mmHg 78%
    21:00 +24°C° 0.5 mm 2 mps 742 mmHg 81%
    22:00 +24°C° 0.2 mm 2 mps 742 mmHg 83%
    23:00 +23°C° 0.2 mm 2 mps 742 mmHg 85%
    Show more